Location: Poughquag
(41.6090°N, 73.6820°W)
Time: 06:49:04
(UTC-05:00)

OTV 5 (USA 277) - Visible Passes

Search period start: 20 February 2018 00:00
Search period end: 02 March 2018 00:00
Orbit: 404 x 417 km, 43.0° (Epoch: 07 September)

Date Brightness Start Highest point End Pass type
(mag) Time Alt. Az. Time Alt. Az. Time Alt. Az.
20 Feb ? 05:23:10 10° SSW 05:25:43 21° SSE 05:28:16 10° E visible
21 Feb ? 04:34:43 14° SSE 04:34:48 14° SE 04:36:38 10° ESE visible
21 Feb ? 06:08:26 10° WSW 06:11:41 60° SSE 06:14:56 10° E visible
22 Feb ? 05:19:05 24° SW 05:20:40 43° SSE 05:23:49 10° E visible
23 Feb ? 04:30:34 26° ESE 04:30:34 26° ESE 04:32:38 10° E visible
23 Feb ? 06:03:32 10° W 06:06:50 83° NNW 06:10:08 10° ENE visible
24 Feb ? 05:14:44 41° WSW 05:15:46 81° SSE 05:19:04 10° ENE visible
25 Feb ? 04:26:04 31° E 04:26:04 31° E 04:27:59 10° E visible
25 Feb ? 05:58:50 10° W 06:02:04 66° N 06:05:21 10° E visible
26 Feb ? 05:10:07 45° WNW 05:10:58 71° N 05:14:15 10° ENE visible
27 Feb ? 04:21:23 30° ENE 04:21:23 30° ENE 04:23:11 10° ENE visible
27 Feb ? 05:54:08 11° WNW 05:57:19 71° N 06:00:36 10° E visible
28 Feb ? 05:05:23 44° WNW 05:06:13 66° N 05:09:30 10° E visible
01 Mar ? 04:16:38 28° ENE 04:16:38 28° ENE 04:18:24 10° E visible
01 Mar ? 05:49:24 11° WNW 05:52:31 81° SSW 05:55:49 10° ESE visible
